Location: ?p Thanh B�nh
(16.5833°N, 107.5333°E)
Time: 10:16:09
(UTC+00:00)

ERS-2 - Pass Details

Date: 29 October 2020
Orbit: 493 x 498 km, 98.6° (Epoch: 23 November)

Event Time Altitude Azimuth Distance (km) Brightness Sun altitude
Rises 21:25:21 0° 155° (SSE) 2,567 6.2 -19.9°
Reaches altitude 10° 21:27:29 10° 149° (SSE) 1,685 5.3 -19.4°
Maximum altitude 21:30:56 44° 76° (ENE) 696 3.3 -18.6°
Drops below altitude 10° 21:34:24 10° 4° (N) 1,685 4.7 -17.8°
Sets 21:36:31 0° 357° (N) 2,567 5.6 -17.3°
